Terminal Aerodrome Forecast
Issued by NWS Kansas City/Pleasant Hill, MO

Home | Current Version | Previous Version | Text Only | Print | Product List | Glossary On
Versions: 1 2 3 4 5 6 7 8 9 10 11 12 13 14 15 16 17 18
000
FTUS43 KEAX 142322
TAFMCI
TAF
KMCI 142322Z 1500/1524 21007KT P6SM SCT030 BKN200
     FM150800 18004KT 6SM BR SCT030
     FM151300 17007KT P6SM SCT040=

USA.gov is the U.S. government's official web portal to all federal, state and local government web resources and services.